www.pogodaiklimat.ru

Погода и климат >> Архив погоды >> Канада >> Toronto


АРХИВ ПОГОДЫ в Toronto

Время (UTC), дата Ветер
(напр.,м/с)
 
Видим.   Явления Облачность Т
(С)
Тd
(С)
f
(%)
Тe
(С)
Тes
(С)
Комфортность P
(гПа)
Po
(гПа)
Тmin
(С)
Tmax
(С)
R
(мм)
R24
(мм)
S
(см)
09 18.06 ЮВ 2 24 км 4/4 1500 м
[]
+20.7 +18.1 85 +25 +25 комфорт 1002.6 982.3 +19.6 +25.0
12 18.06 Ю 4 24 км 9/0
[Ac As]
+24.0 +19.5 76 +29 +30 душно 1001.9 981.7 +20.5 +27.5
15 18.06 ЮЗ 8 24 км 9/9 1000 м
[]
+28.4 +21.0 64 +36 +36 очень
душно
1001.1 981.0
18 18.06 ЮЗ 10 24 км {ливн. осадки} 9/3 1000 м
[Cu med, cong Ac trans Ci fib]
+29.7 +19.7 55 +36 +36 очень
душно
1000.5 980.4 +20.4 +29.7 2
21 18.06 ЮЗ 9 24 км 9/9 1000 м
[]
+26.3 +19.6 67 +32 +32 очень
душно
1000.4 980.2
00 19.06 ЮЗ 5 24 км {ливн. осадки} 9/1 1000 м
[Cb cap Ac As]
+24.3 +19.8 76 +30 +30 очень
душно
1001.2 981.0 +20.5 +29.8 0.2
03 19.06 З 4 24 км 8/0 2000 м
[]
+21.1 +17.3 79 +25 +25 комфорт 1003.6 983.4
06 19.06 ЮЗ 3 24 км 9/0 2000 м
[Ac As Ci fib]
+19.2 +15.0 77 +21 +21 комфорт 1004.5 984.3 +18.9 +29.8 181
09 19.06 ЮЗ 4 24 км 5/0
[]
+17.6 +14.2 80 +17 +17 по сезону 1005.4 985.1
12 19.06 ЮЗ 4 24 км 5/0
[Ac trans Ci fib]
+19.7 +14.5 72 +22 +23 комфорт 1007.1 986.7 +16.6 +29.8
15 19.06 ЮЗ 3 24 км 8/8 1000 м
[]
+23.9 +14.6 56 +27 +29 жарко 1006.9 986.6 +16.6 +24.2
18 19.06 З 7 24 км 9/6 1500 м
[Cu med, cong Ac trans]
+25.3 +12.8 46 +27 +28 жарко 1006.8 986.5 +16.6 +25.6
21 19.06 З 6 24 км 9/9 1500 м
[]
+24.9 +12.4 46 +27 +27 жарко 1005.5 985.2
00 20.06 З 5 24 км слабый ливневой дождь 9/4 1500 м
[Cu med, cong Ac As]
+23.3 +11.6 48 +26 +26 жарко 1006.0 985.7 +16.6 +26.7 0.0
03 20.06 СЗ 6 24 км 9/9 1500 м
[]
+20.1 +11.7 58 +21 +21 комфорт 1007.4 987.0
06 20.06 ЮЗ 3 24 км в посл. час ливневой дождь 10/6 1500 м
[Cu Sc Ac As]
+16.8 +14.4 86 +17 +17 по сезону 1007.5 987.1 +16.6 +26.7 0.4 18
09 20.06 З 3 24 км 9/9 1500 м
[]
+16.6 +14.3 86 +16 +16 по сезону 1007.7 987.3
12 20.06 ЮЗ 5 24 км {ливн. осадки} 9/6 600 м
[Cu hum Ac trans]
+17.1 +14.6 85 +16 +17 по сезону 1010.0 989.5 +16.4 +26.7 0.0
15 20.06 З 5 24 км 9/9 1000 м
[]
+18.8 +13.8 73 +19 +20 прохладно 1010.7 990.2
18 20.06 З 8 24 км {ливн. осадки} 9/6 1000 м
[Cu med, cong Ac trans]
+22.9 +12.9 53 +26 +27 жарко 1010.3 989.8 +16.4 +23.6 0.6
21 20.06 З 9 24 км 8/8 1500 м
[]
+22.9 +11.2 48 +25 +25 комфорт 1010.6 990.1
00 21.06 СЗ 9 24 км слабый ливневой дождь 9/4 1500 м
[Cu med, cong Ac As]
+18.5 +9.5 56 +18 +18 прохладно 1011.7 991.0 +16.4 +23.9 0.0
03 21.06 ЮЗ 3 24 км 8/8 600 м
[]
+14.2 +12.3 88 +13 +13 холодно 1012.6 991.9
06 21.06 ЮЗ 4 24 км {ливн. осадки} ясно +13.5 +12.3 92 +12 +12 прохладно 1012.5 991.8 +13.1 +23.9 4 1
09 21.06 З 4 24 км ясно +12.7 +11.6 93 +11 +11 холодно 1012.7 992.0
12 21.06 З 2 24 км 5/5 300 м
[Sc]
+15.7 +12.5 81 +16 +17 по сезону 1013.8 993.1 +12.1 +23.9
15 21.06 З 5 24 км 6/6 1000 м
[]
+19.4 +12.6 65 +21 +24 комфорт 1014.6 993.8
18 21.06 З 6 24 км 6/6 1000 м
[Sc]
+21.7 +12.8 57 +24 +27 комфорт 1014.3 993.6 +12.1 +22.0
21 21.06 З 5 24 км 5/5 1000 м
[]
+23.0 +11.1 47 +25 +28 комфорт 1013.9 993.2
00 22.06 З 5 24 км 4/4 1500 м
[Cu hum Ci fib]
+21.6 +11.4 52 +24 +24 комфорт 1014.2 993.5 +12.1 +23.5
03 22.06 СЗ 3 24 км ясно +18.9 +11.3 61 +20 +20 тепло 1014.9 994.2
06 22.06 СЗ 2 24 км ясно +15.4 +11.4 77 +16 +16 по сезону 1015.1 994.4 +12.1 +23.5 19
09 22.06 С 1 24 км ясно +14.5 +11.3 81 +16 +16 по сезону 1014.7 994.0
12 22.06 Ю 3 24 км 9/0
[Ac As Ci fib]
+18.4 +12.1 67 +19 +21 тепло 1015.0 994.3 +13.4 +23.5
15 22.06 Ю 2 24 км 9/9 1500 м
[]
+19.4 +13.6 69 +22 +23 комфорт 1015.6 994.9
18 22.06 Ю 7 24 км {ливн. осадки} 9/1 1000 м
[Cu Sc Ac As Ci fib]
+20.8 +14.8 69 +24 +27 комфорт 1011.3 990.6 +13.4 +20.8 2
21 22.06 Ю 3 24 км 9/0
[]
+22.4 +16.6 70 +27 +31 душно 1010.1 989.6
00 23.06 ЮВ 3 24 км 9/0
[Ac As Ci fib]
+21.2 +16.8 76 +25 +25 комфорт 1008.9 988.4 +13.4 +25.0
03 23.06 ЮВ 2 24 км 9/9 600 м
[]
+19.4 +16.8 85 +22 +22 комфорт 1007.8 987.4
06 23.06 СЗ 4 24 км гроза, ливневой дождь 9/6 1000 м
[Cb cap Ac trans]
+21.4 +20.0 92 +27 +27 душно 1006.7 986.3 +13.4 +25.0 2 18
09 23.06 Ю 2 19 км 10/10 600 м
[]
+20.3 +19.5 95 +25 +25 комфорт 1005.0 984.7
12 23.06 В 1 8000 м слабый ливневой дождь {гроза} 10/10 100 м
[Sc]
+20.3 +19.6 96 +25 +25 комфорт 1003.4 983.1 +19.3 +25.0 32
15 23.06 Ю 2 9000 м 10/10 100 м
[]
+20.2 +19.2 94 +24 +24 комфорт 1002.4 982.1
18 23.06 ЮВ 4 24 км {ливн. осадки, дождь} 10/10 300 м
[]
+22.4 +19.2 82 +28 +28 душно 998.7 978.5 +19.3 +22.8 4
21 23.06 З 5 24 км 10/10 600 м
[]
+25.0 +20.0 74 +31 +31 очень
душно
999.5 979.3
00 24.06 СЗ 6 24 км 9/3 600 м
[Cu Sc Ci sp]
+23.5 +18.0 71 +28 +28 душно 1000.6 980.4 +19.7 +25.1
03 24.06 СЗ 6 24 км 9/0 2000 м
[]
+21.3 +16.2 73 +25 +25 комфорт 1002.2 981.9
06 24.06 СЗ 4 24 км 1/0
[Ac trans]
+18.2 +12.5 69 +18 +18 тепло 1003.3 983.0 +17.7 +25.1 0
09 24.06 З 3 24 км 6/0
[]
+16.9 +11.7 71 +17 +17 по сезону 1003.9 983.6
12 24.06 СЗ 5 24 км 1/0
[Ac As]
+18.9 +10.3 57 +19 +21 тепло 1006.3 985.9 +15.6 +25.1
15 24.06 СЗ 7 24 км 3/0
[]
+22.4 +10.5 47 +24 +28 комфорт 1007.4 987.0
18 24.06 З 8 24 км 8/6 1500 м
[Cu hum Ac As]
+22.8 +11.0 47 +25 +26 комфорт 1008.8 988.4 +15.6 +23.7
21 24.06 СЗ 8 24 км 5/5 1500 м
[]
+23.7 +10.4 43 +25 +26 комфорт 1009.8 989.3
00 25.06 СЗ 6 24 км 8/4 1500 м
[Cb cap Ac trans Cs]
+21.6 +11.1 51 +23 +24 комфорт 1010.9 990.4 +15.6 +24.2
03 25.06 З 4 24 км 3/0
[]
+17.0 +11.8 71 +17 +17 прохладно 1012.8 992.3
06 25.06 З 3 24 км 5/0
[Ac As]
+15.8 +12.0 78 +15 +15 по сезону 1013.3 992.6 +14.7 +24.2 191

 

Местоположение метеостанции Toronto (Канада): широта 43.67 долгота -79.63 высота над уровнем моря 173 м.

В архиве по умолчанию представлена погода в Toronto за последнюю неделю. Архивные данные за месяц целиком и за предыдущие месяцы, начиная с января 2011 года, Вы можете получить, выбрав интересующий диапазон дат из раскрывающегося списка и нажав кнопку "Ввод!".

Внимание! Время в таблицах - всемирное. Для получения местного времени необходимо прибавить поправку, которая в Toronto равна -5 ч.

Смотрите также архив погоды в соседних городах и на ближайших метеорологических станциях:

Погода в Toronto Aes Hq (Канада) (18 км)
Погода в Toronto City (Канада) (19 км)
Погода в Toronto Island Arpt (Канада) (19 км)
Погода в Toronto Buttonville (Канада) (31 км)
Погода в Buttonville (Канада) (31 км)
Погода в Burlington Piers (Канада) (43 км)
Погода в Hamilton Rbg Cs (Канада) (49 км)
Погода в Guelph Turfgrass (Канада) (49 км)
Погода в Vineland Station Rc (Канада) (58 км)
Погода в Port Weller (Канада) (58 км)

Пояснения к столбцам:

Ветер - указаны скорость ветра в м/с - средняя за 10 мин, порывы в срок и между сроками (в фигурных скобках) и направление, откуда дует ветер: С - северный, СВ - северо-восточный, В - восточный, ЮВ - юго-восточный, Ю - южный, ЮЗ - юго-западный, З - западный, СЗ - северо-западный.
Видимость - горизонтальная дальность видимости в метрах или километрах. При видимости от 1 до 10 км при отсутствии осадков обычно наблюдается дымка, при ухудшении видимости до 1 км и менее - туман. В сухую погоду видимость может ухудшаться дымом, пылью или мглою.
Явления - указаны атмосферные явления, наблюдавшиеся в срок или в последний час перед сроком; фигурными скобками обозначены явления, наблюдавшиеся между сроками (за 1-3 часа до срока); квадратными скобками обозначены град или гололедные отложения с указанием их диаметра в мм.
Облачность - указаны через наклонную черту общая и нижняя облачность в баллах и высота нижней границы облаков в метрах; квадратными скобками обозначены формы облаков: Ci - перистые, Cs - перисто-слоистые, Cc - перисто-кучевые, Ac - высококучевые, As - высокослоистые, Sc - слоисто-кучевые, Ns - слоисто-дождевые, Cu - кучевые, Cb - кучево-дождевые. Подробнее классификацию облаков см. в Атласе облаков (PDF).
T - Температура воздуха - температура, измеренная на высоте 2 м над землей.
Td - Температура точки росы - температура, при понижении до которой содержащийся в воздухе водяной пар достигнет насыщения.
f - Относительная влажность воздуха - влажноcть воздуха, измеренная на высоте 2 м над землей.
Te - Эффективная температура - температура, которую ощущает одетый по сезону человек в тени. Характеристика душности погоды. При расчете учитывается влияние влажности воздуха и скорости ветра на теплоощущения человека.
Tes - Эффективная температура на солнце - температура, которую ощущает человек, с поправкой на солнечный нагрев. Характеристика знойности погоды. Зависит от высоты солнца над горизонтом, облачности и скорости ветра. Ночью, в пасмурную погоду, а также при ветре 12 м/с и более поправка равна нулю.
P - Атмосферное давление - приведенное к уровню моря атмосферное давление.
Po - Атмосферное давление - измеренное на уровне метеостанции атмосферное давление.
Tmin - Минимальная температура - минимум температуры воздуха на высоте 2 м над землей.
Tmax - Максимальная температура - максимум температуры воздуха на высоте 2 м над землей.
R - Количество осадков - Количество выпавших осадков за период времени, мм. При наведении курсора мыши на число - период времени, за который выпало указанное количество осадков.
R24 - Количество осадков - Количество выпавших осадков за 24 часа, мм.
S - Снежный покров - Высота снежного покрова, см. При наведении курсора мыши на число - состояние снежного покрова и степень покрытия местности в баллах.